[[{"header":{"parameterUnit":"m.s-1","parameterCategory":1,"la1":30.2991,"la2":30.254,"lo1":-89.0895,"lo2":-89.0444,"dy":0.0017,"dx":0.0017,"nx":28,"ny":28,"refTime":"2025-02-04T09:00:00:Z","depth":0,"parameterNumber":2,"parameterNumberName":"U-component_of_WINDS"},"data":[0,0,0,0,0,0,0,0,0,0,0,0,0,0,0,0,0,0,0,0,0,0,0,0,0,0,0,0,0,0,0,0,0,0,0,0,0,0,0,0,0,0,0,0,0,0,0,0,0,0,0,0,0,0,0,0,0,0,-0.4773,-0.4773,0,-0.4734,-0.4734,-0.4733,-0.4705,-0.4705,-0.4705,-0.4704,-0.4664,-0.4663,-0.4662,0,0,0,0,0,0,0,0,0,0,0,0,0,-0.4822,-0.4821,-0.4773,-0.4772,-0.4772,-0.4734,-0.4734,-0.4733,-0.4705,-0.4705,-0.4705,-0.4704,-0.4664,-0.4663,-0.4662,0,0,0,0,0,0,0,0,0,0,0,0,0,-0.4794,-0.4821,-0.4773,-0.4753,-0.4751,-0.4734,-0.4734,-0.4733,-0.4705,-0.4705,-0.4705,-0.4704,-0.4665,-0.4663,-0.4662,-0.4661,0,0,-0.4658,-0.4658,0,0,0,0,0,0,0,0,-0.4796,-0.4792,-0.4757,-0.4755,-0.4752,-0.4724,-0.4736,-0.4709,-0.4705,-0.4723,-0.4704,-0.4704,-0.4684,-0.4681,-0.4675,-0.466,-0.4658,-0.4658,-0.4657,-0.4657,-0.4656,0,0,0,0,0,0,0,-0.4797,-0.4794,-0.4758,-0.4756,-0.4754,-0.4746,-0.4742,-0.4731,-0.4706,-0.4721,-0.4719,-0.4715,-0.4683,-0.4676,-0.4674,-0.4657,-0.4658,-0.4657,-0.4656,-0.4656,-0.4639,-0.4639,0,0,0,0,0,0,-0.4803,-0.4795,-0.4759,-0.4756,-0.4774,-0.4746,-0.4741,-0.4734,-0.4706,-0.4701,-0.4715,-0.4714,-0.4679,-0.4675,-0.4672,-0.4669,-0.4657,-0.4656,-0.4655,-0.4639,-0.4639,-0.4639,0,0,0,0,0,0,-0.4804,-0.48,-0.476,-0.4775,-0.477,-0.4745,-0.4737,-0.4733,-0.4726,-0.4702,-0.4697,-0.4713,-0.4678,-0.4674,-0.4664,-0.4667,-0.4655,-0.4654,-0.4638,-0.4639,-0.4639,-0.4663,0,0,0,0,0,0,-0.4805,-0.48,-0.48,-0.4776,-0.4769,-0.4753,-0.4738,-0.4733,-0.4724,-0.4722,-0.4698,-0.4694,-0.4678,-0.4666,-0.4663,-0.4665,-0.4653,-0.4638,-0.4638,-0.4639,-0.4662,-0.4664,-0.4667,0,0,0,0,0,-0.4807,-0.4808,-0.48,-0.4796,-0.4768,-0.4754,-0.475,-0.4731,-0.4724,-0.4724,-0.4708,-0.4695,-0.4668,-0.4666,-0.4662,-0.4664,-0.4638,-0.4638,-0.4639,-0.4661,-0.4664,-0.4667,0,0,0,0,0,0,-0.4833,-0.4804,-0.4795,-0.4788,-0.4774,-0.4749,-0.4747,-0.4735,-0.4722,-0.472,-0.4698,-0.4693,-0.4685,-0.4673,-0.4672,-0.4661,-0.4651,-0.4651,-0.4669,-0.4672,-0.4674,-0.4677,-0.4652,0,0,0,0,0,-0.4838,-0.4829,-0.4804,-0.48,-0.4794,-0.4772,-0.4765,-0.4752,-0.4736,-0.4729,-0.4713,-0.4697,-0.4685,-0.4678,-0.4666,-0.4661,-0.4655,-0.466,-0.4662,-0.4664,-0.4664,-0.466,-0.4662,-0.4642,-0.4642,-0.4642,0,0,-0.4848,-0.4831,-0.4826,-0.4805,-0.4792,-0.4783,-0.4767,-0.4758,-0.475,-0.4728,-0.4717,-0.4705,-0.4686,-0.4679,-0.4675,-0.4669,-0.4669,-0.4665,-0.4667,-0.4666,-0.4661,-0.4663,-0.4665,-0.4642,-0.4642,-0.4642,0,0,-0.4861,-0.4848,-0.4843,-0.483,-0.4811,-0.4797,-0.4796,-0.4773,-0.4764,-0.4753,-0.4736,-0.4727,-0.4707,-0.4695,-0.4686,-0.4694,-0.4682,-0.4691,-0.4703,-0.4699,-0.4701,-0.4702,-0.4705,-0.4706,-0.4691,-0.4691,-0.4691,0,-0.4875,-0.4861,-0.4842,-0.4834,-0.4825,-0.4804,-0.4799,-0.4788,-0.4766,-0.476,-0.4754,-0.4728,-0.4714,-0.4703,-0.4706,-0.4699,-0.4697,-0.4693,-0.4702,-0.4703,-0.4704,-0.4706,-0.4707,-0.4693,-0.4693,-0.4692,-0.4692,0,-0.4879,-0.487,-0.4868,-0.4847,-0.4838,-0.4832,-0.4812,-0.4805,-0.4793,-0.4779,-0.4769,-0.4751,-0.4735,-0.4732,-0.472,-0.4719,-0.4716,-0.4706,-0.4695,-0.4708,-0.4709,-0.471,-0.4694,-0.4694,-0.4694,-0.4693,0,0,-0.4907,-0.4876,-0.4876,-0.4866,-0.4844,-0.4836,-0.4828,-0.4813,-0.4807,-0.4793,-0.4786,-0.4769,-0.476,-0.475,-0.4737,-0.4734,-0.4742,-0.4724,-0.4724,-0.4728,-0.4739,-0.4746,-0.4747,-0.4733,-0.4733,-0.4733,-0.474,0,-0.4916,-0.4902,-0.4884,-0.4876,-0.4866,-0.4847,-0.4841,-0.4826,-0.4813,-0.4803,-0.4789,-0.4778,-0.4767,-0.4761,-0.4757,-0.4741,-0.4743,-0.4741,-0.4726,-0.4726,-0.473,-0.4748,-0.4755,-0.4763,-0.4741,-0.4741,-0.4741,0,-0.4925,-0.4911,-0.4902,-0.488,-0.4876,-0.487,-0.4855,-0.4846,-0.4829,-0.482,-0.4809,-0.4794,-0.4785,-0.4776,-0.4763,-0.4762,-0.4755,-0.4746,-0.4746,-0.4744,-0.4734,-0.4745,-0.4765,-0.4766,-0.4742,-0.4742,-0.4742,0,-0.4945,-0.4925,-0.4916,-0.4909,-0.4884,-0.488,-0.487,-0.4852,-0.4844,-0.4831,-0.4825,-0.481,-0.4802,-0.4791,-0.4773,-0.4769,-0.4762,-0.4752,-0.4754,-0.4754,-0.4753,-0.4753,-0.4771,-0.475,-0.475,-0.475,-0.475,0,-0.4957,-0.4951,-0.4925,-0.492,-0.4914,-0.4894,-0.4888,-0.4876,-0.4861,-0.4853,-0.4835,-0.4828,-0.4805,-0.4796,-0.4782,-0.4773,-0.4769,-0.4761,-0.4758,-0.4763,-0.4764,-0.4757,-0.4756,-0.475,-0.475,-0.475,-0.475,0,-0.4978,-0.496,-0.495,-0.4927,-0.4921,-0.4917,-0.4898,-0.4892,-0.4878,-0.4868,-0.4865,-0.4843,-0.4831,-0.4812,-0.4794,-0.4784,-0.4778,-0.4772,-0.4783,-0.4781,-0.4784,-0.4784,-0.4798,-0.4798,-0.4778,-0.4778,-0.4778,0,-0.4986,-0.4982,-0.4958,-0.4952,-0.4942,-0.4932,-0.4923,-0.4904,-0.4896,-0.4876,-0.4873,-0.4859,-0.4847,-0.4828,-0.481,-0.4796,-0.4789,-0.4795,-0.4787,-0.4792,-0.4789,-0.4789,-0.4788,-0.4797,-0.4797,-0.4798,-0.4798,0,-0.5002,-0.4994,-0.4982,-0.4968,-0.4958,-0.4946,-0.4933,-0.4928,-0.4906,-0.4898,-0.4885,-0.4876,-0.4857,-0.4844,-0.4827,-0.4816,-0.4803,-0.4801,-0.48,-0.4805,-0.4811,-0.4807,-0.4788,-0.48,-0.48,-0.48,-0.48,-0.48,-0.5017,-0.5012,-0.4995,-0.4982,-0.4971,-0.4959,-0.4952,-0.4938,-0.4927,-0.491,-0.49,-0.4887,-0.4871,-0.4847,-0.4837,-0.4827,-0.4821,-0.4821,-0.4821,-0.4821,-0.4822,-0.4814,-0.4824,-0.4824,-0.4824,-0.4824,-0.4824,0,-0.5031,-0.502,-0.5009,-0.4991,-0.4981,-0.4971,-0.4956,-0.4948,-0.4938,-0.4923,-0.4912,-0.4897,-0.4884,-0.4866,-0.4851,-0.4846,-0.484,-0.4843,-0.4843,-0.484,-0.4828,-0.483,-0.4848,-0.4848,-0.4848,-0.4848,-0.4848,-0.4848,-0.5038,-0.5029,-0.5019,-0.5004,-0.4992,-0.4979,-0.4972,-0.4961,-0.4949,-0.4933,-0.4922,-0.4911,-0.4895,-0.4879,-0.4866,-0.4861,-0.4857,-0.4861,-0.4854,-0.4843,-0.4841,-0.4839,-0.484,-0.4861,-0.4861,-0.4867,-0.4867,-0.4867]},{"header":{"parameterUnit":"m.s-1","parameterCategory":1,"la1":30.2991,"la2":30.254,"lo1":-89.0895,"lo2":-89.0444,"dy":0.0017,"dx":0.0017,"nx":28,"ny":28,"refTime":"2025-02-04T09:00:00:Z","depth":0,"parameterNumber":3,"parameterNumberName":"V-component_of_WINDS"},"data":[0,0,0,0,0,0,0,0,0,0,0,0,0,0,0,0,0,0,0,0,0,0,0,0,0,0,0,0,0,0,0,0,0,0,0,0,0,0,0,0,0,0,0,0,0,0,0,0,0,0,0,0,0,0,0,0,0,0,0.7023,0.7023,0,0.7016,0.7016,0.7015,0.7008,0.7007,0.7007,0.7007,0.7,0.7,0.7,0,0,0,0,0,0,0,0,0,0,0,0,0,0.703,0.703,0.7023,0.7023,0.7023,0.7016,0.7016,0.7015,0.7008,0.7007,0.7007,0.7007,0.7,0.7,0.7,0,0,0,0,0,0,0,0,0,0,0,0,0,0.7025,0.703,0.7023,0.7018,0.7017,0.7016,0.7016,0.7015,0.7008,0.7007,0.7007,0.7007,0.7,0.7,0.7,0.7003,0,0,0.7,0.7,0,0,0,0,0,0,0,0,0.7026,0.7025,0.7019,0.7018,0.7018,0.7012,0.7015,0.7011,0.7008,0.7011,0.7007,0.7007,0.7004,0.7004,0.7003,0.7002,0.7002,0.7,0.7,0.7,0.6999,0,0,0,0,0,0,0,0.7026,0.7025,0.702,0.7019,0.7018,0.7016,0.7015,0.7015,0.7009,0.7011,0.701,0.701,0.7004,0.7003,0.7003,0.7002,0.7,0.7,0.6999,0.6999,0.7003,0.7003,0,0,0,0,0,0,0.7027,0.7026,0.702,0.702,0.7021,0.7016,0.7015,0.7014,0.7009,0.7008,0.701,0.7009,0.7003,0.7003,0.7002,0.7005,0.7,0.6999,0.6999,0.7003,0.7003,0.7003,0,0,0,0,0,0,0.7027,0.7027,0.7021,0.7023,0.7022,0.7016,0.7015,0.7014,0.7013,0.7008,0.7007,0.701,0.7003,0.7003,0.7003,0.7005,0.6999,0.6999,0.7003,0.7003,0.7003,0.7011,0,0,0,0,0,0,0.7027,0.7027,0.7028,0.7023,0.7022,0.7021,0.7015,0.7014,0.7013,0.7012,0.7008,0.7007,0.7003,0.7003,0.7002,0.7005,0.6999,0.7002,0.7003,0.7003,0.701,0.7011,0.7012,0,0,0,0,0,0.7028,0.703,0.7028,0.7027,0.7023,0.7021,0.702,0.7016,0.7013,0.7014,0.7011,0.7007,0.7005,0.7003,0.7002,0.7004,0.7002,0.7003,0.7003,0.701,0.7011,0.7012,0,0,0,0,0,0,0.7036,0.703,0.7027,0.7028,0.7025,0.702,0.7021,0.7017,0.7015,0.7015,0.7009,0.7008,0.7009,0.7007,0.7005,0.7007,0.7003,0.7003,0.7008,0.7009,0.701,0.7011,0.6999,0,0,0,0,0,0.7038,0.7037,0.7031,0.7033,0.7032,0.7026,0.7025,0.7022,0.7019,0.7018,0.7015,0.7012,0.701,0.701,0.7008,0.701,0.7009,0.7011,0.7012,0.7012,0.7013,0.7013,0.7014,0.7004,0.7004,0.7004,0,0,0.7042,0.7038,0.7038,0.7034,0.7032,0.7031,0.7025,0.7025,0.7024,0.7018,0.7018,0.7015,0.7012,0.7012,0.7013,0.7011,0.7015,0.7013,0.7014,0.7014,0.7014,0.7015,0.7016,0.7005,0.7005,0.7005,0,0,0.7049,0.7046,0.7047,0.7044,0.704,0.7037,0.7037,0.7032,0.703,0.703,0.7025,0.7024,0.7022,0.7019,0.7018,0.7023,0.702,0.7023,0.7028,0.7028,0.7029,0.703,0.7032,0.7032,0.7023,0.7023,0.7023,0,0.7054,0.7053,0.7048,0.7047,0.7046,0.704,0.704,0.7038,0.7034,0.7033,0.7031,0.7028,0.7025,0.7025,0.7026,0.7025,0.7025,0.7024,0.7029,0.703,0.703,0.7032,0.7033,0.7024,0.7024,0.7024,0.7024,0,0.706,0.7059,0.706,0.7056,0.7055,0.7055,0.7049,0.7049,0.7045,0.7042,0.7041,0.7038,0.7035,0.7035,0.7032,0.7035,0.7033,0.703,0.7026,0.7032,0.7033,0.7034,0.7024,0.7024,0.7024,0.7024,0,0,0.7073,0.7065,0.7066,0.7064,0.7059,0.7058,0.7057,0.7055,0.7054,0.7051,0.7051,0.7049,0.7046,0.7044,0.7041,0.7041,0.7046,0.7038,0.7038,0.7039,0.7048,0.7051,0.7052,0.7043,0.7043,0.7043,0.7048,0,0.7079,0.7078,0.7073,0.7074,0.7073,0.7066,0.7066,0.7063,0.706,0.7058,0.7055,0.7054,0.705,0.7048,0.7049,0.7045,0.7047,0.7045,0.7043,0.7043,0.7044,0.7052,0.7055,0.706,0.7049,0.7049,0.7049,0,0.7086,0.7083,0.7084,0.7079,0.7078,0.7078,0.7075,0.7074,0.707,0.7067,0.7065,0.7061,0.706,0.7056,0.7056,0.7054,0.7053,0.7051,0.7051,0.7051,0.7047,0.7053,0.7062,0.7063,0.705,0.705,0.705,0,0.7095,0.7092,0.7092,0.709,0.7084,0.7084,0.7081,0.7077,0.7076,0.7073,0.7072,0.7069,0.7068,0.7066,0.7061,0.7059,0.7061,0.7056,0.7059,0.7059,0.706,0.706,0.7069,0.7059,0.7059,0.7059,0.7059,0,0.7103,0.7104,0.7096,0.7096,0.7096,0.709,0.709,0.7087,0.7084,0.7083,0.7077,0.7077,0.707,0.7069,0.7065,0.7065,0.7064,0.7062,0.7061,0.7063,0.7063,0.7062,0.7062,0.7059,0.7059,0.7059,0.7059,0,0.7114,0.7108,0.7108,0.7101,0.71,0.71,0.7095,0.7095,0.7091,0.709,0.7089,0.7083,0.7081,0.7076,0.7073,0.707,0.7071,0.7069,0.7072,0.7072,0.7074,0.7074,0.7084,0.7084,0.7074,0.7074,0.7074,0,0.7119,0.7119,0.7113,0.7112,0.7109,0.7108,0.7106,0.71,0.7099,0.7094,0.7094,0.7091,0.7089,0.7086,0.7082,0.7079,0.7077,0.708,0.7077,0.7078,0.7077,0.7077,0.7077,0.7081,0.7082,0.7082,0.7082,0,0.7129,0.7126,0.7124,0.7121,0.7119,0.7116,0.7113,0.7113,0.7106,0.7104,0.7102,0.71,0.7096,0.7094,0.709,0.7088,0.7084,0.7083,0.7083,0.7085,0.7087,0.7086,0.7075,0.7083,0.7083,0.7083,0.7083,0.7083,0.7138,0.7137,0.7133,0.713,0.7127,0.7124,0.7123,0.7119,0.7117,0.7114,0.711,0.7108,0.7104,0.7099,0.7096,0.7095,0.7092,0.7093,0.7093,0.7094,0.7094,0.7087,0.7094,0.7094,0.7094,0.7094,0.7094,0,0.7148,0.7144,0.7142,0.7137,0.7135,0.7131,0.7127,0.7126,0.7124,0.7121,0.7118,0.7115,0.7113,0.7108,0.7105,0.7104,0.7102,0.7104,0.7104,0.7103,0.7096,0.7096,0.7105,0.7105,0.7105,0.7105,0.7105,0.7105,0.7153,0.7152,0.7148,0.7146,0.7143,0.714,0.7139,0.7136,0.7133,0.713,0.7127,0.7124,0.712,0.7116,0.7113,0.7112,0.7111,0.7113,0.7111,0.7105,0.7104,0.7103,0.7103,0.7113,0.7113,0.7118,0.7118,0.7118]}]]